Home   Weather   Bridgeport   Past weeks
Flag for USA

Past Weather in Bridgeport, Connecticut, USA — Yesterday and Last 2 Weeks

Now
86 °F

Sunny.


Feels Like: 93 °F
Forecast: 88 / 69 °F
Wind: 10 mph from Southwest

Location: Sikorsky Memorial Airport

Current Time: Jul 19, 2019 at 4:54:30 pm

Latest Report: Jul 19, 2019 at 3:52 pm


Visibility: 10 mi

Pressure: 29.85 "Hg

Humidity: 65%

Dew Point: 73 °F

Location of BridgeportLocation

Past Weather in Bridgeport — Graph

°F

Bridgeport Temperature Yesterday

Maximum temperature yesterday: 75 °F (at 1:17 am)
Minimum temperature yesterday: 70 °F (at 11:52 pm)
Average temperature yesterday: 73 °F

High & Low Weather Summary for the Past Weeks

 TemperatureHumidityPressure
High92 °F (Jul 14, 3:52 pm)97% (Jul 18, 5:37 am)30.18 "Hg (Jul 18, 5:37 am)
Low68 °F (Jul 9, 4:52 am)29% (Jul 14, 4:52 pm)29.68 "Hg (Jul 12, 6:04 am)
Average77 °F74%29.94 "Hg
* Reported Jul 4 2:52 pm — Jul 19 2:52 pm, Bridgeport. Weather by CustomWeather, © 2019

Note: Actual official high and low records may vary slightly from our data, if they occured in-between our weather recording intervals... More about our weather records

Advertising

Bridgeport Weather History for the Previous 24 Hours

Scroll right to see more
 ConditionsComfort  
Time TempWeatherWind HumidityBarometerVisibility
2:52 pm
Fri, Jul 19
84 °FSunny.8 mph67%29.85 "Hg10 mi
1:52 pm81 °FSunny.10 mph72%29.87 "Hg10 mi
12:52 pm79 °FScattered clouds.7 mph77%29.89 "Hg10 mi
12:06 pm75 °FLow clouds.9 mph82%29.91 "Hg10 mi
11:52 am75 °FMore clouds than sun.7 mph82%29.91 "Hg10 mi
11:40 am75 °FMore clouds than sun.7 mph82%29.91 "Hg10 mi
10:52 am73 °FLow clouds.7 mph84%29.91 "Hg10 mi
10:06 am73 °FLow clouds.6 mph84%29.92 "Hg10 mi
8:52 am72 °FOvercast.3 mph87%29.92 "Hg10 mi
8:06 am72 °FOvercast.5 mph84%29.92 "Hg10 mi
7:52 am72 °FLow clouds.3 mph84%29.91 "Hg10 mi
7:37 am73 °FLow clouds.5 mph81%29.91 "Hg10 mi
6:52 am70 °FOvercast.No wind90%29.91 "Hg8 mi
5:52 am71 °FFog.No wind90%29.91 "Hg4 mi
4:52 am70 °FLow clouds.3 mph90%29.89 "Hg10 mi
4:07 am74 °FLow clouds.5 mph82%29.90 "Hg10 mi
2:52 am73 °FOvercast.5 mph81%29.90 "Hg10 mi
1:52 am72 °FOvercast.5 mph81%29.89 "Hg10 mi
12:52 am71 °FOvercast.6 mph87%29.90 "Hg10 mi
11:52 pm
Thu, Jul 18
70 °FOvercast.6 mph90%29.92 "Hg10 mi
11:33 pm71 °FLow clouds.8 mph87%29.92 "Hg10 mi
10:52 pm71 °FMostly cloudy.6 mph87%29.92 "Hg10 mi
9:52 pm71 °FOvercast.7 mph87%29.91 "Hg10 mi
8:52 pm71 °FMostly cloudy.10 mph90%29.89 "Hg10 mi
7:52 pm71 °FHeavy rain. Fog.13 mph93%29.90 "Hg1 mi
7:44 pm71 °FHeavy rain. Fog.10 mph93%29.90 "Hg1 mi
7:29 pm71 °FHeavy rain. Fog.8 mph93%29.91 "Hg1 mi
7:12 pm71 °FHeavy rain. Fog.8 mph93%29.91 "Hg2 mi
6:52 pm72 °FLight rain. Fog.9 mph93%29.90 "Hg4 mi
6:32 pm72 °FLow clouds.8 mph93%29.90 "Hg7 mi
6:20 pm72 °FLight rain. Fog.6 mph93%29.91 "Hg6 mi
5:52 pm72 °FLight rain. Fog.9 mph93%29.90 "Hg3 mi
4:52 pm73 °FOvercast.9 mph90%29.89 "Hg10 mi
4:19 pm73 °FLow clouds.13 mph94%29.89 "Hg10 mi
Weather by CustomWeather, © 2019

See weather overview